Regional Weather Roundup
Issued by NWS Charleston, SC

Current Version | Previous Version | Graphics & Text | Print | Product List | Glossary On
Versions: 1 2 3 4 5 6 7 8 9 10 11 12 13 14 15 16 17 18 19 20 21 22 23 24 25 26 27 28 29 30 31 32 33 34 35 36 37 38 39 40 41 42 43 44 45 46 47 48 49 50
000 ASUS42 KCHS 242127 RWRCHS REGIONAL WEATHER ROUNDUP NATIONAL WEATHER SERVICE CHARLESTON SC 500 PM EDT SAT JUN 24 2017 NOTE: "FAIR" INDICATES FEW OR NO CLOUDS BELOW 12,000 FEET WITH NO SIGNIFICANT WEATHER AND/OR OBSTRUCTIONS TO VISIBILITY. NOT ALL STATIONS ARE QUALITY CONTROLLED. USE DATA WITH CAUTION... ESPECIALLY DEWPOINT OBSERVATIONS. SCZ027-030-031-034>040-042>050-242200- ...SOUTHEAST SOUTH CAROLINA... CITY SKY/WX TMP DP RH WIND PRES REMARKS N CHARLESTON MOSUNNY 90 74 59 S17G24 29.98S HX 99 WATERFRONT PRK N/A 85 77 76 S14 29.96F HX 95 JOHNS ISLAND CLOUDY 88 77 70 S12G20 29.99S HX 100 PINOPOLIS N/A 91 73 55 SW7 29.89S HX 100 MONCKS CORNER FAIR 90 70 51 SW8 29.96S HX 95 SUMMERVILLE FAIR 91 70 49 SW8 29.97F HX 97 BEAUFORT MCAS MOSUNNY 92 79 65 S7 29.98F HX 108 BEAUFORT ARPT FAIR 88 77 70 S10G21 29.98F HX 100 HILTON HEAD IS SUNNY 88 77 70 S13 30.00F HX 100 WALTERBORO PTCLDY 91 70 49 SW14 29.97F HX 97 ALLENDALE RAIN 75 73 94 VRB5G12 30.00R VSB 1/2 ...SOUTHERN MIDLANDS AND PEE DEE... CITY SKY/WX TMP DP RH WIND PRES REMARKS GEORGETOWN FAIR 88 77 70 S12G18 29.98R HX 100 KINGSTREE TSTM 75 72 88 NW14G26 29.96R ORANGEBURG LGT RAIN 78 75 90 SW8 29.98R BARNWELL FAIR 75 75 100 SW8 30.00F AIKEN LGT RAIN 72 72 100 S6 30.03F MANNING FAIR 81 77 89 N15G22 29.96S COLUMBIA RAIN 77 74 90 SW6 29.97F FOG SUMTER DRIZZLE 81 76 84 W10 29.93F FLORENCE MOSUNNY 90 74 59 SW17 29.93R HX 99 MYRTLE BEACH MOSUNNY 86 79 79 S25 29.95F HX 99 N MYRTLE BEACH SUNNY 85 78 80 S21G29 29.94F HX 96 $$ GAZ063-065-086>088-099>101-113>116-118-119-134>141-150-242200- ...SOUTHEAST GEORGIA... CITY SKY/WX TMP DP RH WIND PRES REMARKS SAVANNAH ARPT PTSUNNY 94 68 42 SW10 29.99F HX 98 HUNTER AAF MOSUNNY 94 71 45 SW12G17 29.97S HX 101 FORT STEWART MOSUNNY 94 70 45 W13 29.97F HX 99 STATESBORO SUNNY 93 70 46 SW8 30.00S HX 99 SYLVANIA MOCLDY 90 74 58 SW6 30.01R HX 99 CLAXTON FAIR 91 69 49 SW7 30.00S HX 95 ...CSRA...CENTRAL AND FAR SOUTHEAST GEORGIA... CITY SKY/WX TMP DP RH WIND PRES REMARKS THOMSON CLOUDY 76 74 94 W7 30.05R AUGUSTA-BUSH CLOUDY 77 74 90 SW5 29.99F AUGUSTA-DANIEL LGT RAIN 76 72 87 S8 30.00S SWAINSBORO TSTM 77 77 100 W13G21 30.06R VIDALIA PTSUNNY 91 70 49 W12G17 30.02R HX 97 EASTMAN FAIR 81 70 70 NW6 30.04F HAZLEHURST N/A 92 70 48 SW8 30.01S HX 98 ALMA MOSUNNY 92 70 48 SW9 30.01S HX 97 WAYCROSS MOSUNNY 96 74 49 W13 30.01S HX 107 JESUP FAIR 93 64 38 SW7 30.00F HX 95 BAXLEY FAIR 93 73 52 W8G17 30.01S HX 102 BRUNSWICK MOSUNNY 95 73 49 SW7 30.01S HX 105 SAINT SIMONS SUNNY 88 77 69 SE13 30.01F HX 100 $$ SCZ027-028-034-036>038-045-046-048>050-GAZ119-141-242200- ...LAKE AND SUPPLEMENTAL COASTAL OBSERVATIONS... STATION/POSITION TIME TEMP WIND PRES WAVE SWELL AIR SEA DIR/SP/G HT/PER HT/PER/DIR (UTC) (F) (DEG/KT/KT) (MB) (FT/S) (FT/S/D) WINYAH BAY 2045 87 200/ 16 1014.0S LAKE MURRAY 2050 78 250/ 6/ 9 1013.9F ACE BASIN NERRS 2045 88 180/ 2 1015.0F FORT PULASKI 2100 88 84 200/ 7/ 14 1015.9 SAPELO ISLAND 2100 89 160/ 9 1016.0 $$ ANZ835-935-AMZ111-154-330-350-352-354-370-450-454-472-242200- ...C-MAN AND BUOY OBSERVATIONS... STATION/POSITION TIME TEMP WIND PRES WAVE SWELL AIR SEA DIR/SP/G HT/PER HT/PER/DIR (UTC) (F) (DEG/KT/KT) (MB) (FT/S) (FT/S/D) BUOY 41004 2110 81 81 200/ 16/ 19 1016.0 BUOY 41008 2050 82 83 160/ 16/ 17 1015.8F 3/ 8 2/ 90/ 8 FOLLY BEACH CMAN 2100 83 190/ 16/ 19 1016.3F CAPERS NEARSHORE 2108 86 84 210/ 17/ 23 1015.1F FRIPP NEARSHORE 2108 83 84 200/ 16/ 21 1015.3F STATION/POSITION TIME TEMP WIND PRES WAVE SWELL AIR SEA DIR/SP/G HT/PER HT/PER/DIR (UTC) (F) (DEG/KT/KT) (MB) (FT/S) (FT/S/D) 5E ST. MARYS GA 2100 82 N/A 3/ 9 FRYING PAN BUOY 2110 81 81 200/ 19/ 25 1014.5 BUOY 41025 2050 81 80 230/ 19/ 23 1013.8F 7/ 7 CAPE LOOKOUT NC 2100 82 210/ 16/ 20 1013.5S BUOY 41002 2050 81 81 200/ 14/ 16 1018.9F 4/ 5 2/100/ 9 BUOY 41010 2110 83 84 170/ 10/ 14 1018.6 ST AUGUSTINE FL 2100 80 81 160/ 13/ 14 1016.9F $$

USA.gov is the U.S. government's official web portal to all federal, state and local government web resources and services.